TimeCDT,TemperatureF,Dew PointF,Humidity,Sea Level PressureIn,VisibilityMPH,Wind Direction,Wind SpeedMPH,Gust SpeedMPH,PrecipitationIn,Events,Conditions,WindDirDegrees,DateUTC
12:15 AM,68.0,50.0,52,30.16,10.0,Calm,Calm,-,N/A,,Clear,0,2013-05-25 05:15:00
12:35 AM,68.0,50.0,52,30.17,10.0,NNE,3.5,-,N/A,,Clear,30,2013-05-25 05:35:00
12:55 AM,66.2,50.0,56,30.16,10.0,NNE,5.8,-,N/A,,Clear,30,2013-05-25 05:55:00
1:15 AM,64.4,50.0,59,30.16,10.0,NNE,4.6,-,N/A,,Clear,30,2013-05-25 06:15:00
1:35 AM,64.4,50.0,59,30.16,10.0,NNE,4.6,-,N/A,,Clear,30,2013-05-25 06:35:00
1:55 AM,64.4,50.0,59,30.15,10.0,NNE,5.8,-,N/A,,Clear,20,2013-05-25 06:55:00
2:15 AM,64.4,50.0,59,30.15,10.0,NE,6.9,-,N/A,,Clear,40,2013-05-25 07:15:00
2:35 AM,64.4,50.0,59,30.15,10.0,NNE,5.8,-,N/A,,Clear,30,2013-05-25 07:35:00
2:55 AM,64.4,50.0,59,30.15,10.0,NNE,6.9,-,N/A,,Clear,30,2013-05-25 07:55:00
3:15 AM,64.4,48.2,56,30.15,10.0,NNE,5.8,-,N/A,,Clear,30,2013-05-25 08:15:00
3:35 AM,62.6,50.0,63,30.16,10.0,NNE,5.8,-,N/A,,Clear,30,2013-05-25 08:35:00
3:55 AM,62.6,48.2,59,30.16,10.0,NNE,6.9,-,N/A,,Clear,30,2013-05-25 08:55:00
4:15 AM,62.6,48.2,59,30.17,10.0,NNE,6.9,-,N/A,,Clear,30,2013-05-25 09:15:00
4:35 AM,62.6,48.2,59,30.18,10.0,NNE,5.8,-,N/A,,Clear,30,2013-05-25 09:35:00
4:55 AM,62.6,48.2,59,30.18,10.0,NNE,6.9,-,N/A,,Clear,30,2013-05-25 09:55:00
5:15 AM,60.8,46.4,59,30.19,10.0,NNE,5.8,-,N/A,,Clear,20,2013-05-25 10:15:00
5:35 AM,60.8,46.4,59,30.19,10.0,NNE,6.9,-,N/A,,Clear,30,2013-05-25 10:35:00
5:55 AM,60.8,46.4,59,30.20,10.0,NNE,5.8,-,N/A,,Clear,20,2013-05-25 10:55:00
6:15 AM,60.8,46.4,59,30.21,10.0,NNE,8.1,-,N/A,,Clear,20,2013-05-25 11:15:00
6:35 AM,60.8,46.4,59,30.21,10.0,NNE,8.1,-,N/A,,Clear,30,2013-05-25 11:35:00
6:55 AM,60.8,46.4,59,30.21,10.0,NNE,5.8,-,N/A,,Clear,20,2013-05-25 11:55:00
7:15 AM,62.6,46.4,55,30.22,10.0,NNE,5.8,-,N/A,,Clear,30,2013-05-25 12:15:00
7:35 AM,64.4,46.4,52,30.22,10.0,NNE,5.8,-,N/A,,Clear,30,2013-05-25 12:35:00
7:55 AM,68.0,48.2,49,30.22,10.0,NNE,6.9,-,N/A,,Clear,30,2013-05-25 12:55:00
8:15 AM,68.0,48.2,49,30.23,10.0,NE,5.8,-,N/A,,Clear,40,2013-05-25 13:15:00
8:35 AM,69.8,50.0,49,30.23,10.0,NNE,5.8,-,N/A,,Clear,30,2013-05-25 13:35:00
8:55 AM,71.6,50.0,46,30.24,10.0,NE,3.5,-,N/A,,Clear,40,2013-05-25 13:55:00
9:15 AM,73.4,50.0,44,30.24,10.0,East,4.6,-,N/A,,Clear,80,2013-05-25 14:15:00
9:35 AM,77.0,46.4,34,30.24,10.0,ENE,8.1,-,N/A,,Clear,70,2013-05-25 14:35:00
9:55 AM,77.0,48.2,36,30.24,10.0,NE,10.4,-,N/A,,Clear,40,2013-05-25 14:55:00
10:15 AM,78.8,48.2,34,30.24,10.0,NE,9.2,-,N/A,,Clear,50,2013-05-25 15:15:00
10:35 AM,78.8,46.4,32,30.24,10.0,ENE,10.4,-,N/A,,Clear,60,2013-05-25 15:35:00
10:55 AM,80.6,46.4,30,30.24,10.0,ENE,10.4,-,N/A,,Clear,60,2013-05-25 15:55:00
11:15 AM,80.6,44.6,28,30.24,10.0,East,10.4,-,N/A,,Clear,90,2013-05-25 16:15:00
11:35 AM,82.4,42.8,25,30.24,10.0,East,10.4,17.3,N/A,,Clear,80,2013-05-25 16:35:00
11:55 AM,82.4,44.6,26,30.24,10.0,East,12.7,-,N/A,,Clear,100,2013-05-25 16:55:00
12:15 PM,80.6,46.4,30,30.23,10.0,ESE,13.8,-,N/A,,Clear,110,2013-05-25 17:15:00
12:35 PM,82.4,46.4,28,30.23,10.0,East,10.4,-,N/A,,Clear,100,2013-05-25 17:35:00
12:55 PM,82.4,48.2,30,30.22,10.0,ESE,13.8,-,N/A,,Clear,120,2013-05-25 17:55:00
1:15 PM,82.4,46.4,28,30.21,10.0,ESE,13.8,17.3,N/A,,Clear,120,2013-05-25 18:15:00
1:35 PM,82.4,44.6,26,30.20,10.0,ESE,15.0,-,N/A,,Clear,110,2013-05-25 18:35:00
1:55 PM,82.4,46.4,28,30.20,10.0,ESE,11.5,-,N/A,,Clear,110,2013-05-25 18:55:00
2:15 PM,82.4,48.2,30,30.20,10.0,SE,12.7,-,N/A,,Clear,130,2013-05-25 19:15:00
2:35 PM,80.6,50.0,34,30.19,10.0,ESE,12.7,17.3,N/A,,Clear,120,2013-05-25 19:35:00
2:55 PM,80.6,50.0,34,30.18,10.0,ESE,10.4,-,N/A,,Clear,120,2013-05-25 19:55:00
3:15 PM,80.6,50.0,34,30.17,10.0,SSE,12.7,17.3,N/A,,Clear,150,2013-05-25 20:15:00
3:35 PM,80.6,50.0,34,30.17,10.0,SE,10.4,-,N/A,,Clear,140,2013-05-25 20:35:00
3:55 PM,80.6,51.8,37,30.17,10.0,SE,10.4,-,N/A,,Clear,130,2013-05-25 20:55:00
4:15 PM,80.6,53.6,39,30.17,10.0,SSE,9.2,-,N/A,,Clear,160,2013-05-25 21:15:00
4:35 PM,80.6,51.8,37,30.17,10.0,SSE,8.1,-,N/A,,Clear,150,2013-05-25 21:35:00
4:55 PM,80.6,53.6,39,30.17,10.0,South,9.2,-,N/A,,Clear,180,2013-05-25 21:55:00
5:15 PM,80.6,53.6,39,30.17,10.0,SE,9.2,-,N/A,,Clear,140,2013-05-25 22:15:00
5:35 PM,78.8,55.4,44,30.18,10.0,SSE,6.9,-,N/A,,Clear,160,2013-05-25 22:35:00
5:55 PM,78.8,57.2,47,30.18,10.0,South,5.8,-,N/A,,Clear,170,2013-05-25 22:55:00
6:15 PM,78.8,57.2,47,30.18,10.0,SSE,4.6,-,N/A,,Clear,150,2013-05-25 23:15:00
6:35 PM,77.0,59.0,54,30.17,10.0,SE,4.6,-,N/A,,Clear,140,2013-05-25 23:35:00
6:55 PM,77.0,59.0,54,30.17,10.0,SSE,4.6,-,N/A,,Clear,150,2013-05-25 23:55:00
7:15 PM,77.0,59.0,54,30.17,10.0,SSE,3.5,-,N/A,,Clear,150,2013-05-26 00:15:00
7:35 PM,73.4,59.0,61,30.16,10.0,Calm,Calm,-,N/A,,Clear,0,2013-05-26 00:35:00
7:55 PM,71.6,60.8,69,30.16,10.0,Calm,Calm,-,N/A,,Clear,0,2013-05-26 00:55:00
8:15 PM,71.6,60.8,69,30.17,10.0,Calm,Calm,-,N/A,,Clear,0,2013-05-26 01:15:00
8:35 PM,68.0,60.8,78,30.17,10.0,Calm,Calm,-,N/A,,Clear,0,2013-05-26 01:35:00
8:55 PM,64.4,60.8,88,30.17,10.0,Calm,Calm,-,N/A,,Clear,0,2013-05-26 01:55:00
9:15 PM,66.2,60.8,83,30.18,10.0,Calm,Calm,-,N/A,,Clear,0,2013-05-26 02:15:00
9:35 PM,66.2,60.8,83,30.18,10.0,Calm,Calm,-,N/A,,Clear,0,2013-05-26 02:35:00
9:55 PM,64.4,60.8,88,30.18,10.0,Calm,Calm,-,N/A,,Clear,0,2013-05-26 02:55:00
10:15 PM,62.6,59.0,88,30.18,10.0,Calm,Calm,-,N/A,,Clear,0,2013-05-26 03:15:00
10:35 PM,62.6,60.8,94,30.19,10.0,Calm,Calm,-,N/A,,Clear,0,2013-05-26 03:35:00
10:55 PM,62.6,59.0,88,30.19,7.0,Calm,Calm,-,N/A,,Clear,0,2013-05-26 03:55:00
11:15 PM,62.6,59.0,88,30.19,1.5,Calm,Calm,-,N/A,,Mist,0,2013-05-26 04:15:00
11:35 PM,60.8,57.2,88,30.19,10.0,Calm,Calm,-,N/A,,Clear,0,2013-05-26 04:35:00
11:55 PM,60.8,57.2,88,30.18,4.0,Calm,Calm,-,N/A,,Clear,0,2013-05-26 04:55:00